Regional Weather Roundup
Issued by NWS San Diego, CA

Home | Current Version | Previous Version | Text Only | Print | Product List | Glossary On
Versions: 1 2 3 4 5 6 7 8 9 10 11 12 13 14 15 16 17 18 19 20 21 22 23 24 25 26 27 28 29 30 31 32 33 34 35 36 37 38 39 40 41 42 43 44 45 46 47 48 49 50
000
ASUS46 KSGX 061111
RWRSGX

SAN DIEGO HOURLY WEATHER ROUNDUP
NATIONAL WEATHER SERVICE SAN DIEGO CA
400 AM PDT WED MAY 06 2015

NOTE: "FAIR" INDICATES FEW OR NO CLOUDS BELOW 12,000 FEET WITH NO
SIGNIFICANT WEATHER AND/OR OBSTRUCTIONS TO VISIBILITY.

CAZ042-043-060-061-PZZ750-775-061200-

GREATER SAN DIEGO AREA

CITY           SKY/WX    TMP DP  RH WIND       PRES   REMARKS
LINDBERGH FLD  CLOUDY    61  49  64 S5        29.93F
POINT LOMA       N/A     59  51  74 SE3         N/A
CHULA VISTA      N/A     60  52  75 CALM      29.85F
IMPERIAL BEACH CLOUDY    60  51  72 CALM      29.93F
BROWN FIELD    CLOUDY    58  49  72 CALM      29.92F
MIRAMAR MCAS   CLOUDY    61  47  59 CALM      29.91F
MONTGOMERY FLD CLOUDY    59  48  67 S3        29.92F

$$

NORTH SAN DIEGO COUNTY

CITY           SKY/WX    TMP DP  RH WIND       PRES   REMARKS
CAMP PENDLETON CLOUDY    59  48  67 NE3       29.91F
OCEANSIDE AP   CLOUDY    60  50  69 CALM      29.90F
VISTA            N/A     57  51  81 CALM      29.90F
CARLSBAD       CLOUDY    59  50  72 SE3       29.91F
FALLBROOK        N/A     57  55  93 CALM      29.92F
SAN MARCOS       N/A     57  51  81 CALM      29.90F

$$

EAST SAN DIEGO COUNTY

CITY           SKY/WX    TMP DP  RH WIND       PRES   REMARKS
RAMONA         CLOUDY    54  48  80 CALM      29.91F
SANTEE LAKES     N/A     59  51  75 CALM      29.92F
LA MESA          N/A     58  50  74 CALM      29.86F
DESCANSO N       N/A     47  44  87 CALM      29.79F
MT. LAGUNA OBS   N/A     46   1  15 W5        29.53
CAMPO            N/A     50  45  83 SW7       29.88F

$$

ORANGE COUNTY AND THE LOS ANGELES BASIN

CITY           SKY/WX    TMP DP  RH WIND       PRES   REMARKS
JOHN WAYNE AP  CLOUDY    59  49  69 SE5       29.91F
LAKE FOREST FR   N/A     56  45  68 CALM      29.82F
SANTA ANA        N/A     59  53  79 CALM      29.87F
HUNTINGTON BCH   N/A     58  53  84 CALM      29.93F
LOS ALAMITOS   CLOUDY    59  51  76 NE2       29.91F
FULLERTON      CLOUDY    60  49  66 CALM      29.91F
LONG BEACH     CLOUDY    60  50  69 CALM      29.91F
L.A. AP        MOCLDY    59  51  75 CALM      29.91F
L.A. DOWNTOWN  CLOUDY    58  52  80 CALM      29.91F

$$

THE INLAND EMPIRE

CITY           SKY/WX    TMP DP  RH WIND       PRES   REMARKS
CORONA         MOCLDY    55  49  80 CALM      29.92F
CHINO          CLOUDY    57  49  74 W5        29.93F
ONTARIO        CLOUDY    56  47  71 W6        29.91F
RIVERSIDE AP   CLOUDY    56  48  74 CALM      29.92F
RIV CYN CREST    N/A     55  55  97 NW2         N/A
MARCH ARB      CLOUDY    55  46  72 SE3       29.91F
HORSETHIEF CYN   N/A     55  45  68 CALM      29.89S
MENIFEE          N/A     55  50  83 S2        29.97F
HEMET EAST       N/A     51  44  75 CALM      29.92F
FRENCH VALLEY  CLOUDY    54  48  82 CALM      29.92F
TEMECULA         N/A     56  51  84 CALM      29.89F

$$

SAN BERNARDINO AND RIVERSIDE COUNTY MOUNTAINS

CITY           SKY/WX    TMP DP  RH WIND       PRES   REMARKS
BIG BEAR AP    MOCLDY    34  10  37 CALM      29.95F

$$

SOUTHERN DESERT INCLUDING THE COACHELLA VALLEY

CITY           SKY/WX    TMP DP  RH WIND       PRES   REMARKS
PALM SPRINGS   CLOUDY    65  43  44 NW16G23   29.76S
THOUSAND PALMS   N/A     62  45  52 NW18      29.75S
THERMAL        MOCLDY    66  43  43 NW16G25   29.73R
BLYTHE         PTCLDY    69  41  36 S9        29.75S
IMPERIAL AP    MOCLDY    61  45  55 W9        29.74F
EL CENTRO NAS  MOCLDY    66  42  41 W20       29.77S
YUMA AZ        PTCLDY    70  56  61 SW3       29.76F

$$

UPPER DESERT

CITY           SKY/WX    TMP DP  RH WIND       PRES   REMARKS
VICTORVILLE AP MOCLDY    52  43  71 S10       29.84F
HESPERIA         N/A     50  43  74 W10       29.93F
APPLE VALLEY     N/A     53  41  65 CALM      29.95S
PALMDALE       PTCLDY    50  44  80 S16       29.85F
LANCASTER      PTCLDY    51  43  74 SW17      29.85S
EDWARDS AFB    MOCLDY    52  42  69 SW12      29.81S
DAGGETT        MOCLDY    62  36  37 W16       29.79S
29 PALMS N     MOCLDY    62  25  24 W12       29.85F
NEEDLES        PTCLDY    74  31  20 SW13      29.74S

$$

REGIONAL REPORTS

CITY           SKY/WX    TMP DP  RH WIND       PRES   REMARKS
SANTA BARBARA  PTCLDY    49  44  83 CALM      29.91F
SANDBERG       FOG       45  42  89 SW14G22   29.92F VSB 1/4
MT. WILSON       N/A     37  36  93 MISG        N/A
LAS VEGAS NV   PTCLDY    68  39  34 S7        29.72S
PHOENIX AZ     PTCLDY    72  47  40 VRB5      29.80S
TIJUANA        CLOUDY    59  46  63 CALM      29.95F
ENSENADA NW      N/A     60  32  35 W2        29.90F

$$

OFFSHORE ISLANDS

CITY           SKY/WX    TMP DP  RH WIND       PRES   REMARKS
CATALINA ARPT  CLOUDY    51  49  92 CALM      29.92F
SAN NICOLAS IS MOCLDY   N/A N/A N/A NW24G30   29.92F

$$

MARINE AND OFFSHORE BUOY REPORTS

STATION/POSITION SKY/WX   TEMP    WIND        PRES    SWELL
                          AIR SEA DIR/SP/G            HT/PER/DIR
                          (F)     (DEG/KT/KT) (MB)    (FT/S/D)
TANNER BANKS               57 61  320/ 19/ 23 1014.1F   5/270/15
S CLEMENTE BASIN           58 63  280/ 12/ 16 1013.0F   5/180/16
SAN NICOLAS IS.               59                N/A     7/260/14
SO. S. ROSA ISLA           56 60  320/ 19/ 25 1013.1F   7/14
W. S. BARBARA CH           54 54  340/ 16/ 19 1013.8F   7/310/13
S. MONICA BASIN            57 59  340/ 10/ 10 1013.2F   5/200/15
S PEDRO CHANNEL               62                N/A     2/190/15
DANA POINT                    59                N/A     3/190/15
OCEANSIDE OFFSHR              63                N/A     3/190/17
TORREY PINES OTR              62                N/A     3/200/15
LA JOLLA 1                 61 66  180/  3/  4 1013.1F
MISSION BAY BUOY              63                N/A     3/190/15
SAN DIEGO BAY                 67              1013.7F
POINT LOMA SOUTH              65                N/A     3/180/17

$$



USA.gov is the U.S. government's official web portal to all federal, state and local government web resources and services.